• In Netherlands
  • List of Countries
  • For 7 days
  • Water Temperature
  • Satellite Maps
  • Weather Map
  • Weather Widgets
  • user-avatar
    Login

    Hourly Weather Ghent

    Today, 21 September, Thursday

    Time Temperature Precipitation Wind Pressure Humidity
    00:00 +11°C° 0 mm 4 mps 764 mmHg 84%
    01:00 +11°C° 0 mm 4 mps 764 mmHg 83%
    02:00 +10°C° 0 mm 4 mps 763 mmHg 83%
    03:00 +10°C° 0 mm 4 mps 763 mmHg 82%
    04:00 +10°C° 0 mm 4 mps 763 mmHg 83%
    05:00 +10°C° 0 mm 4 mps 763 mmHg 83%
    06:00 +10°C° 0 mm 4 mps 763 mmHg 83%
    07:00 +11°C° 0 mm 4 mps 763 mmHg 78%
    08:00 +13°C° 0 mm 4 mps 763 mmHg 73%
    09:00 +15°C° 0 mm 5 mps 763 mmHg 69%
    10:00 +16°C° 0 mm 5 mps 763 mmHg 65%
    11:00 +17°C° 0 mm 5 mps 763 mmHg 61%
    12:00 +20°C° 0 mm 5 mps 762 mmHg 58%
    13:00 +20°C° 0 mm 4 mps 762 mmHg 58%
    14:00 +20°C° 0 mm 4 mps 762 mmHg 58%
    15:00 +20°C° 0 mm 4 mps 762 mmHg 58%
    16:00 +19°C° 0 mm 3 mps 762 mmHg 63%
    17:00 +17°C° 0 mm 3 mps 762 mmHg 69%
    18:00 +16°C° 0 mm 3 mps 762 mmHg 74%
    19:00 +16°C° 0 mm 3 mps 762 mmHg 76%
    20:00 +14°C° 0 mm 3 mps 762 mmHg 77%
    21:00 +13°C° 0 mm 3 mps 762 mmHg 79%
    22:00 +13°C° 0 mm 3 mps 762 mmHg 80%
    23:00 +13°C° 0 mm 3 mps 762 mmHg 80%

    Tomorrow, 22 September, Friday

    Time Temperature Precipitation Wind Pressure Humidity
    00:00 +12°C° 0 mm 3 mps 762 mmHg 81%
    01:00 +12°C° 0 mm 3 mps 762 mmHg 81%
    02:00 +12°C° 0 mm 3 mps 762 mmHg 82%
    03:00 +12°C° 0 mm 3 mps 762 mmHg 82%
    04:00 +13°C° 0 mm 2 mps 763 mmHg 83%
    05:00 +13°C° 0 mm 2 mps 763 mmHg 84%
    06:00 +13°C° 0 mm 2 mps 763 mmHg 84%
    07:00 +14°C° 0 mm 2 mps 763 mmHg 83%
    08:00 +16°C° 0 mm 3 mps 764 mmHg 82%
    09:00 +17°C° 0 mm 3 mps 764 mmHg 80%
    10:00 +18°C° 0.1 mm 3 mps 764 mmHg 76%
    11:00 +18°C° 0.1 mm 3 mps 764 mmHg 73%
    12:00 +19°C° 0.1 mm 3 mps 764 mmHg 69%
    13:00 +19°C° 0.1 mm 4 mps 764 mmHg 68%
    14:00 +19°C° 0.1 mm 4 mps 765 mmHg 67%
    15:00 +19°C° 0.1 mm 4 mps 765 mmHg 65%
    16:00 +17°C° 0 mm 3 mps 765 mmHg 69%
    17:00 +14°C° 0 mm 3 mps 765 mmHg 73%
    18:00 +14°C° 0 mm 2 mps 766 mmHg 77%
    19:00 +13°C° 0 mm 2 mps 766 mmHg 78%
    20:00 +12°C° 0 mm 1 mps 766 mmHg 79%
    21:00 +12°C° 0 mm 1 mps 767 mmHg 81%
    22:00 +11°C° 0 mm 1 mps 767 mmHg 81%
    23:00 +11°C° 0 mm 1 mps 767 mmHg 82%

    Day after tomorrow, 23 September, Saturday

    Time Temperature Precipitation Wind Pressure Humidity
    00:00 +11°C° 0 mm 1 mps 767 mmHg 82%
    01:00 +11°C° 0 mm 1 mps 767 mmHg 82%
    02:00 +10°C° 0 mm 1 mps 767 mmHg 82%
    03:00 +10°C° 0 mm 1 mps 767 mmHg 82%
    04:00 +10°C° 0 mm 1 mps 767 mmHg 82%
    05:00 +10°C° 0 mm 1 mps 767 mmHg 81%
    06:00 +10°C° 0 mm 1 mps 767 mmHg 80%
    07:00 +12°C° 0 mm 1 mps 767 mmHg 75%
    08:00 +13°C° 0 mm 1 mps 767 mmHg 70%
    09:00 +15°C° 0 mm 2 mps 767 mmHg 65%
    10:00 +16°C° 0 mm 2 mps 767 mmHg 61%
    11:00 +17°C° 0 mm 2 mps 767 mmHg 56%
    12:00 +18°C° 0 mm 2 mps 767 mmHg 52%
    13:00 +18°C° 0 mm 2 mps 766 mmHg 52%
    14:00 +19°C° 0 mm 2 mps 766 mmHg 51%
    15:00 +19°C° 0 mm 2 mps 766 mmHg 51%
    16:00 +17°C° 0 mm 2 mps 766 mmHg 56%
    17:00 +16°C° 0 mm 2 mps 766 mmHg 60%
    18:00 +14°C° 0 mm 2 mps 766 mmHg 65%
    19:00 +13°C° 0 mm 3 mps 766 mmHg 68%
    20:00 +12°C° 0 mm 3 mps 766 mmHg 70%
    21:00 +12°C° 0 mm 3 mps 766 mmHg 73%
    22:00 +11°C° 0 mm 3 mps 766 mmHg 77%
    23:00 +12°C° 0 mm 2 mps 766 mmHg 82%

    24 September, Sunday

    Time Temperature Precipitation Wind Pressure Humidity
    00:00 +12°C° 0 mm 2 mps 766 mmHg 86%
    01:00 +12°C° 0 mm 2 mps 766 mmHg 88%
    02:00 +12°C° 0 mm 2 mps 766 mmHg 91%
    03:00 +10°C° 0 mm 2 mps 766 mmHg 93%
    04:00 +10°C° 0 mm 2 mps 766 mmHg 94%
    05:00 +10°C° 0 mm 2 mps 766 mmHg 94%
    06:00 +10°C° 0 mm 2 mps 766 mmHg 95%
    07:00 +13°C° 0 mm 2 mps 766 mmHg 89%
    08:00 +14°C° 0 mm 3 mps 766 mmHg 83%
    09:00 +17°C° 0 mm 3 mps 766 mmHg 77%
    10:00 +18°C° 0 mm 3 mps 766 mmHg 72%
    11:00 +20°C° 0 mm 3 mps 766 mmHg 66%
    12:00 +21°C° 0 mm 3 mps 766 mmHg 61%
    13:00 +21°C° 0 mm 3 mps 766 mmHg 60%
    14:00 +21°C° 0 mm 3 mps 765 mmHg 60%
    15:00 +21°C° 0 mm 3 mps 765 mmHg 59%
    16:00 +20°C° 0 mm 3 mps 765 mmHg 64%
    17:00 +18°C° 0 mm 3 mps 765 mmHg 68%
    18:00 +17°C° 0 mm 3 mps 766 mmHg 73%
    19:00 +16°C° 0 mm 3 mps 766 mmHg 76%
    20:00 +14°C° 0 mm 3 mps 766 mmHg 80%
    21:00 +14°C° 0 mm 3 mps 766 mmHg 83%
    22:00 +13°C° 0 mm 3 mps 765 mmHg 86%
    23:00 +13°C° 0 mm 3 mps 765 mmHg 89%

    25 September, Monday

    Time Temperature Precipitation Wind Pressure Humidity
    00:00 +13°C° 0 mm 3 mps 765 mmHg 92%
    01:00 +13°C° 0 mm 2 mps 765 mmHg 93%
    02:00 +13°C° 0 mm 2 mps 765 mmHg 94%
    03:00 +13°C° 0 mm 2 mps 765 mmHg 95%
    04:00 +13°C° 0 mm 2 mps 765 mmHg 95%
    05:00 +13°C° 0 mm 2 mps 764 mmHg 95%
    06:00 +12°C° 0 mm 2 mps 764 mmHg 95%
    07:00 +14°C° 0 mm 2 mps 764 mmHg 90%
    08:00 +16°C° 0 mm 2 mps 764 mmHg 84%
    09:00 +17°C° 0 mm 3 mps 764 mmHg 79%
    10:00 +19°C° 0 mm 3 mps 764 mmHg 74%
    11:00 +20°C° 0 mm 3 mps 764 mmHg 70%
    12:00 +21°C° 0 mm 3 mps 763 mmHg 66%
    13:00 +21°C° 0.1 mm 3 mps 763 mmHg 67%
    14:00 +21°C° 0.1 mm 3 mps 763 mmHg 68%
    15:00 +21°C° 0.1 mm 4 mps 763 mmHg 69%
    16:00 +19°C° 0 mm 4 mps 763 mmHg 75%
    17:00 +18°C° 0 mm 3 mps 763 mmHg 81%
    18:00 +16°C° 0 mm 3 mps 763 mmHg 87%
    19:00 +16°C° 0 mm 3 mps 763 mmHg 88%
    20:00 +14°C° 0 mm 3 mps 763 mmHg 90%
    21:00 +13°C° 0 mm 3 mps 763 mmHg 92%
    22:00 +13°C° 0 mm 3 mps 763 mmHg 92%
    23:00 +12°C° 0 mm 3 mps 763 mmHg 92%

    26 September, Tuesday

    Time Temperature Precipitation Wind Pressure Humidity
    00:00 +12°C° 0 mm 3 mps 763 mmHg 92%
    01:00 +12°C° 0 mm 3 mps 763 mmHg 92%
    02:00 +12°C° 0 mm 2 mps 763 mmHg 92%
    03:00 +12°C° 0 mm 2 mps 763 mmHg 93%
    04:00 +12°C° 0 mm 2 mps 763 mmHg 93%
    05:00 +10°C° 0 mm 2 mps 763 mmHg 93%
    06:00 +10°C° 0 mm 3 mps 763 mmHg 93%
    07:00 +12°C° 0 mm 3 mps 763 mmHg 87%
    08:00 +14°C° 0 mm 3 mps 763 mmHg 81%
    09:00 +16°C° 0 mm 3 mps 763 mmHg 74%
    10:00 +17°C° 0 mm 2 mps 763 mmHg 70%
    11:00 +18°C° 0 mm 2 mps 763 mmHg 65%
    12:00 +20°C° 0 mm 2 mps 763 mmHg 60%
    13:00 +20°C° 0 mm 2 mps 762 mmHg 60%
    14:00 +20°C° 0 mm 2 mps 762 mmHg 59%
    15:00 +20°C° 0 mm 2 mps 762 mmHg 58%
    16:00 +19°C° 0 mm 2 mps 762 mmHg 64%
    17:00 +17°C° 0 mm 2 mps 762 mmHg 70%
    18:00 +16°C° 0 mm 2 mps 762 mmHg 75%
    19:00 +15°C° 0 mm 2 mps 762 mmHg 78%
    20:00 +15°C° 0 mm 2 mps 763 mmHg 81%
    21:00 +14°C° 0 mm 2 mps 763 mmHg 83%
    22:00 +14°C° 0 mm 2 mps 763 mmHg 85%
    23:00 +13°C° 0 mm 2 mps 763 mmHg 86%
    Show more